Bookmark and Share
Track history (hours):
 

Maersk Danang

Last reported at 2014-Apr-22 21:32 UTC. Time now 2014-Apr-24 02:16 UTC.
Position N 29°41' W 095°00'.

Length 294 m; draft 10.3 m.

Type: Ship. MMSI: 636091595.

NotesDate/timePositionNaut miles runAvg speedWind from/ knotsBaromVisibWave heightAir tempDewpointWater temp
2014-Apr-22 21:32N 29°41' W 095°00'0 0.0
2014-Apr-22 20:32N 29°41' W 095°00'0 0.0
2014-Apr-22 19:31N 29°41' W 095°00'0 0.0
2014-Apr-22 18:31N 29°41' W 095°00'0 0.0
2014-Apr-22 17:33N 29°41' W 095°00'0 0.0
2014-Apr-22 16:33N 29°41' W 095°00'0 0.0
2014-Apr-22 15:32N 29°41' W 095°00'0 0.0
2014-Apr-22 14:32N 29°41' W 095°00'0 0.0
2014-Apr-22 13:33N 29°41' W 095°00'0 0.0
2014-Apr-22 12:31N 29°41' W 095°00'1 0.6
2014-Apr-22 11:34N 29°41' W 094°60'9 9.3
2014-Apr-22 10:33N 29°33' W 094°54'1411.7
2014-Apr-22 09:19N 29°21' W 094°45'43816.0
2014-Apr-21 06:00N 25°54' W 087°30'36215.3 310 / 41017.010.8 0.522.020.526.0
2014-Apr-20 06:23N 24°33' W 081°00'5614.4
2014-Apr-20 02:30N 25°06' W 080°11'1414.4
2014-Apr-20 01:33N 25°18' W 080°04'1413.9
2014-Apr-20 00:33N 25°32' W 080°02'1313.1
2014-Apr-19 23:33N 25°45' W 080°00'1312.9
2014-Apr-19 22:33N 25°58' W 079°59'1312.5
2014-Apr-19 21:33N 26°10' W 079°58'1212.3
2014-Apr-19 20:33N 26°22' W 079°56'1312.6
2014-Apr-19 19:33N 26°35' W 079°55'1514.5
2014-Apr-19 18:31N 26°50' W 079°55'4 7.9
2014-Apr-19 18:00N 26°54' W 079°54'1228.1 130 / 121013.0 5.4 0.528.022.125.0
2014-Apr-19 17:33N 27°06' W 079°55'1716.7
2014-Apr-19 16:33N 27°23' W 079°56'  
2014-Apr-16 18:00N 36°06' W 074°12'20236.4 010 / 221026.010.8 2.0 5.0 2.5 8.0
2014-Apr-16 12:26N 39°27' W 073°55'1314.5
2014-Apr-16 11:33N 39°40' W 073°53'1514.6
2014-Apr-16 10:34N 39°55' W 073°51'3310.8
2014-Apr-16 07:33N 40°27' W 073°50'1110.9
2014-Apr-16 06:32N 40°34' W 074°02'7 7.5
2014-Apr-16 05:33N 40°39' W 074°09'1 1.1
2014-Apr-16 04:32N 40°40' W 074°09'0 0.0
2014-Apr-16 03:31N 40°40' W 074°09'0 0.0
2014-Apr-16 02:31N 40°40' W 074°09'0 0.0
2014-Apr-16 01:28N 40°40' W 074°09'0 0.0
2014-Apr-16 00:33N 40°40' W 074°09'0 0.0
2014-Apr-15 23:33N 40°40' W 074°09'0 0.0
2014-Apr-15 22:32N 40°40' W 074°09'0 0.0
2014-Apr-15 21:32N 40°40' W 074°09'0 0.0
2014-Apr-15 20:31N 40°40' W 074°09'0 0.0
2014-Apr-15 19:31N 40°40' W 074°09'0 0.0
2014-Apr-15 18:31N 40°40' W 074°09'0 0.0
2014-Apr-15 17:33N 40°40' W 074°09'0 0.0
2014-Apr-15 16:33N 40°40' W 074°09'2 1.7
2014-Apr-15 15:33N 40°39' W 074°07'5 5.0
2014-Apr-15 14:33N 40°35' W 074°02'11 5.5
2014-Apr-15 12:33N 40°28' W 073°51'18 8.9
2014-Apr-15 10:34N 40°28' W 073°28'3517.3
2014-Apr-15 08:32N 40°31' W 072°42'1717.8
2014-Apr-15 07:34N 40°31' W 072°19'1817.8
2014-Apr-15 06:34N 40°31' W 071°56'3358.2
2014-Apr-15 06:00N 40°30' W 071°12'1535.3 160 / 221014.0 5.4 1.011.0 9.0 5.0
2014-Apr-15 05:33N 40°32' W 071°32'3617.9
2014-Apr-15 03:34N 40°32' W 070°45'1917.8
2014-Apr-15 02:31N 40°32' W 070°20'1717.7
2014-Apr-15 01:33N 40°32' W 069°58'1717.6
2014-Apr-15 00:34N 40°32' W 069°35'1817.7
2014-Apr-14 23:34N 40°32' W 069°12'31718.1
2014-Apr-14 06:00N 40°00' W 062°18'19816.5 170 / 181025.010.8 1.517.015.320.0
2014-Apr-13 18:00N 40°00' W 058°00'20717.2 050 / 141025.010.8 0.515.013.217.0
2014-Apr-13 06:00N 40°00' W 053°30'   220 / 241024.010.8 2.016.014.316.0

Dump ship's entire track history

sailing weather and tide predictions

Maersk Danang — A8PS5 — position and weather